{"data":{"norad_id":68659,"intl_designator":"2026-076D","name":"HULIANWANG DIGUI-167","alt_names":[],"object_type":"PAYLOAD","status":"ACTIVE","operator":null,"country":"PRC","launch_date":"2026-04-08","launch_site_code":"TAISC","launch_vehicle":null,"mission":null,"orbit_class":"UNKNOWN","rcs_meters":null,"size_class":null,"mass_kg":null,"dimensions":null,"purposes":[],"wikipedia_slug":null,"has_3d_model":false,"image_url":null,"decayed_at":null,"tle_current":{"epoch":"2026-05-24T13:32:44.756160Z","epoch_age_seconds":123403,"freshness":"FRESH","line1":"1 68659U 26076D   26144.56440690 -.00000014  00000+0 -57326-4 0  9999","line2":"2 68659  86.4994  51.8746 0003030  67.4255 292.7206 13.35106587  6241","mean_motion":13.35106587,"eccentricity":0.000303,"inclination_deg":86.4994,"raan_deg":51.8746,"arg_perigee_deg":67.4255,"mean_anomaly_deg":292.7206,"bstar":-5.7326e-5,"rev_number":624,"period_min":107.85655722332,"perigee_km":1125.2890106985,"apogee_km":1129.8374650427,"semimajor_km":7505.7002378706,"source":"CELESTRAK","updated_at":"2026-05-25T13:38:07.995963Z"}}}